Retour au catalogue

STARLINK-38099

ActifCommunicationsSSO
NORAD 69987·PAYLOAD·🇺🇸 United States

Lancé Jul 11, 2026 depuis Vandenberg Space Force Base

Loading…

Prochains Passages (prochaines 24 heures)

TLE

FraisSource: CelesTrak SupGP

Époque: Sep 14, 2026, 22:38 UTC

1 69987C 26159N   26257.94354167 -.02528300  00000+0 -41016-1 0  2574
2 69987  97.2849  99.6633 0001565  91.1082 283.6959 15.54072688    13

Suivez STARLINK-38099 en temps réel avec AllMySat

Download on the App Store